www.pogodaiklimat.ru

Погода и климат >> Архив погоды >> Индия >> Raipur


ПОГОДА в Raipur

  • Прогноз погоды в Raipur
  • Монитор погоды в Raipur
  • Климат города

АРХИВ ПОГОДЫ в Raipur

Время (UTC), дата Ветер
(напр.,м/с)
 
Видим.   Явления Облачность Т
(С)
Тd
(С)
f
(%)
Тe
(С)
Тes
(С)
Комфортность P
(гПа)
Po
(гПа)
Тmin
(С)
Tmax
(С)
R
(мм)
R24
(мм)
S
(см)
03 16.10 штиль 0 4000 м мгла 1/0
[Ac trans]
+25.0 +20.1 74 +31 +37 очень
душно
1015.6 1016.0 +21.8
06 16.10 штиль 0 4000 м 1/0
[Ci fib]
+31.0 +17.9 46 +35 +56 опасность
солнечного
удара
1013.9 1014.0
09 16.10 ЮЗ 2 4000 м 1/1 900 м
[Cu hum]
+32.6 +16.5 38 +36 +45 очень
душно
1010.7 1011.0
12 16.10 штиль 0 4000 м ясно +30.4 +18.3 48 +35 +35 очень
душно
1010.6 1011.0 +33.2
15 16.10 штиль 0 4000 м ясно +26.4 +19.6 66 +32 +32 очень
душно
1012.9 1013.0
18 16.10 ЮЗ 1 4000 м ясно +27.8 +19.9 62 +34 +34 очень
душно
1011.9 1012.0
21 16.10 штиль 0 3400 м 4/4 1000 м
[]
+25.8 +21.3 76 +33 +33 очень
душно
1011.2 1011.0
00 17.10 0 н/о +24.2 +21.5 85 1011.0 1012.7
03 17.10 ЮВ 1 4000 м мгла 1/0
[Ci fib]
+24.8 +19.9 74 +30 +36 душно 1014.4 1014.0 +21.6
06 17.10 ЮЗ 2 4000 м ясно +31.2 +16.6 42 +35 +51 опасность
солнечного
удара
1012.4 1012.0
09 17.10 З 1 4000 м 3/0
[Ci fib]
+33.2 +16.1 36 +36 +47 очень
душно
1008.5 1009.0
12 17.10 З 1 4000 м 3/0
[Ci fib]
+30.4 +17.2 45 +34 +34 очень
душно
1009.0 1009.0 +33.6
15 17.10 штиль 0 4000 м ясно +27.0 +19.6 64 +33 +33 очень
душно
1011.3 1011.0
18 17.10 0 н/о +28.6 +22.4 69 1010.5
00 18.10 штиль 0 3400 м 4/4 1000 м
[]
+25.2 +23.4 90 +34 +34 очень
душно
1010.2 1010.0
03 18.10 штиль 0 4000 м мгла ясно +25.2 +18.6 67 +30 +37 душно 1013.0 1013.0 +22.1
06 18.10 ЮЗ 2 4000 м ясно +31.2 +18.6 47 +36 +53 опасность
солнечного
удара
1012.1 1012.0
09 18.10 ЮЗ 1 4000 м 4/0
[Ci fib]
+33.0 +17.4 39 +37 +47 очень
душно
1009.1 1009.0
12 18.10 ЮЗ 1 4000 м 1/0
[Ci fib]
+31.0 +19.8 51 +37 +37 очень
душно
1009.6 1010.0 +33.6
15 18.10 штиль 0 4000 м ясно +27.0 +19.6 64 +33 +33 очень
душно
1011.3 1011.0
03 19.10 ЮВ 1 4000 м мгла 1/0
[Ci fib]
+25.0 +19.8 73 +31 +36 очень
душно
1013.7 1014.0 +22.5
06 19.10 З 1 4000 м мгла ясно +31.4 +18.8 47 +36 +54 опасность
солнечного
удара
1012.2 1012.0
09 19.10 ЮЗ 1 4000 м 6/6 600 м
[Sc diur, vesp]
+33.6 +19.4 43 +39 +43 очень
душно
1009.4 1009.0
12 19.10 ЮЗ 1 4000 м ясно +31.4 +20.3 52 +38 +38 очень
душно
1010.7 1011.0 +34.4
15 19.10 штиль 0 4000 м ясно +27.6 +21.0 67 +35 +35 очень
душно
1012.5 1013.0
21 19.10 штиль 0 4000 м 3/0
[Ci fib]
+20.8 +17.7 82 +24 +24 комфорт 1013.2 1013.0
03 20.10 З 1 4000 м мгла ясно +25.4 +21.2 78 +32 +38 очень
душно
1015.0 1015.0 +23.1
06 20.10 штиль 0 4000 м ясно +31.8 +18.2 44 +36 +56 опасность
солнечного
удара
1013.6 1014.0
09 20.10 штиль 0 4000 м 4/4 600 м
[Cu Sc]
+33.6 +14.9 33 +35 +43 душно 1010.5 1011.0
12 20.10 штиль 0 4000 м 4/0
[Ac trans]
+31.6 +19.8 50 +38 +38 очень
душно
1011.5 1012.0 +34.7
15 20.10 штиль 0 4000 м ясно +27.8 +20.5 65 +35 +35 очень
душно
1013.5 1014.0
18 20.10 ЮЗ 1 4000 м 4/4 600 м
[Sc]
+30.0 +8.2 26 1013.9
03 21.10 штиль 0 4000 м 5/0
[Ac trans]
+26.2 +21.0 73 +24.5
06 21.10 ЮЗ 1 4000 м мгла 5/0
[Ac trans]
+32.4 +19.7 47 +38 +51 опасность
солнечного
удара
1013.6 1014.0
09 21.10 ЮЗ 1 4000 м мгла 6/4 750 м
[Cu Sc Ci fib]
+33.0 +19.0 44 +38 +44 очень
душно
1010.9 1011.0
12 21.10 штиль 0 50 км мгла ?/? 0.0 +19.7 100 -1 -1 1011.3 1011.0 +34.6
15 21.10 штиль 0 4000 м ясно +27.4 +20.8 67 +34 +34 очень
душно
1013.4 1013.0
18 21.10 штиль 0 3400 м 4/4 1000 м
[]
+29.4 +8.9 28 +29 +29 жарко 1014.8 1015.0
03 22.10 ЮЗ 1 4000 м мгла ясно +25.4 +20.8 76 +32 +37 очень
душно
1014.0 1014.0 +23.3
06 22.10 З 2 4000 м ясно +33.0 +18.6 43 +38 +54 опасность
солнечного
удара
1012.4 1012.0
09 22.10 З 2 4000 м 1/1 900 м
[Cu hum]
+34.2 +16.2 34 +37 +46 очень
душно
1009.1 1009.0
12 22.10 ЮЗ 1 4000 м 1/0
[Ci fib]
+31.4 +21.0 54 +39 +39 очень
душно
1009.6 1010.0 +34.5
15 22.10 Ю 1 4000 м ясно +28.0 +21.4 67 +35 +35 очень
душно
1011.5 1012.0

 

Местоположение метеостанции Raipur (Chhattisgarh, Индия): широта 21.23 долгота 81.65 высота над уровнем моря 298 м.

В архиве по умолчанию представлена погода в Raipur за последнюю неделю. Архивные данные за месяц целиком и за предыдущие месяцы, начиная с января 2011 года, Вы можете получить, выбрав интересующий диапазон дат из раскрывающегося списка и нажав кнопку "Ввод!".


*Определитесь, кто Вы:
робот инопланетянин человек

Внимание! Время в таблицах - всемирное. Для получения местного времени необходимо прибавить поправку, которая в Raipur равна 5.5 ч.

Смотрите также архив погоды в соседних городах и на ближайших метеорологических станциях:

Погода в Durg (Chhattisgarh, Индия) (39 км)
Погода в Rajnandgaon (Chhattisgarh, Индия) (66 км)
Погода в Bilaspur (Chhattisgarh, Индия) (111 км)
Погода в Raipur Airport (Chhattisgarh, Индия) (111 км)
Погода в Malanjkhand (Madhya Pradesh, Индия) (130 км)
Погода в Gondia (Maharashtra, Индия) (153 км)
Погода в Pendra Road (Chhattisgarh, Индия) (173 км)
Погода в Bramhapuri (Maharashtra, Индия) (200 км)
Погода в Mandla (Madhya Pradesh, Индия) (200 км)
Погода в Titlagarh (Orissa, Индия) (200 км)

Пояснения к столбцам:

Ветер - указаны скорость ветра в м/с - средняя за 10 мин, порывы в срок и между сроками (в фигурных скобках) и направление, откуда дует ветер: С - северный, СВ - северо-восточный, В - восточный, ЮВ - юго-восточный, Ю - южный, ЮЗ - юго-западный, З - западный, СЗ - северо-западный.
Видимость - горизонтальная дальность видимости в метрах или километрах. При видимости от 1 до 10 км при отсутствии осадков обычно наблюдается дымка, при ухудшении видимости до 1 км и менее - туман. В сухую погоду видимость может ухудшаться дымом, пылью или мглою.
Явления - указаны атмосферные явления, наблюдавшиеся в срок или в последний час перед сроком; фигурными скобками обозначены явления, наблюдавшиеся между сроками (за 1-3 часа до срока); квадратными скобками обозначены град или гололедные отложения с указанием их диаметра в мм.
Облачность - указаны через наклонную черту общая и нижняя облачность в баллах и высота нижней границы облаков в метрах; квадратными скобками обозначены формы облаков: Ci - перистые, Cs - перисто-слоистые, Cc - перисто-кучевые, Ac - высококучевые, As - высокослоистые, Sc - слоисто-кучевые, Ns - слоисто-дождевые, Cu - кучевые, Cb - кучево-дождевые. Подробнее классификацию облаков см. в Атласе облаков (PDF).
T - Температура воздуха - температура, измеренная на высоте 2 м над землей.
Td - Температура точки росы - температура, при понижении до которой содержащийся в воздухе водяной пар достигнет насыщения.
f - Относительная влажность воздуха - влажноcть воздуха, измеренная на высоте 2 м над землей.
Te - Эффективная температура - температура, которую ощущает одетый по сезону человек в тени. Характеристика душности погоды. При расчете учитывается влияние влажности воздуха и скорости ветра на теплоощущения человека.
Tes - Эффективная температура на солнце - температура, которую ощущает человек, с поправкой на солнечный нагрев. Характеристика знойности погоды. Зависит от высоты солнца над горизонтом, облачности и скорости ветра. Ночью, в пасмурную погоду, а также при ветре 12 м/с и более поправка равна нулю.
P - Атмосферное давление - приведенное к уровню моря атмосферное давление.
Po - Атмосферное давление - измеренное на уровне метеостанции атмосферное давление.
Tmin - Минимальная температура - минимум температуры воздуха на высоте 2 м над землей.
Tmax - Максимальная температура - максимум температуры воздуха на высоте 2 м над землей.
R - Количество осадков - Количество выпавших осадков за период времени, мм. При наведении курсора мыши на число - период времени, за который выпало указанное количество осадков.
R24 - Количество осадков - Количество выпавших осадков за 24 часа, мм.
S - Снежный покров - Высота снежного покрова, см. При наведении курсора мыши на число - состояние снежного покрова и степень покрытия местности в баллах.